[[{"header":{"parameterUnit":"m.s-1","parameterCategory":1,"la1":30.2991,"la2":30.254,"lo1":-89.0895,"lo2":-89.0444,"dy":0.0017,"dx":0.0017,"nx":28,"ny":28,"refTime":"2023-10-04T03:00:00:Z","depth":0,"parameterNumber":2,"parameterNumberName":"U-component_of_WINDS"},"data":[0,0,0,0,0,0,0,0,0,0,0,0,0,0,0,0,0,0,0,0,0,0,0,0,0,0,0,0,0,0,0,0,0,0,0,0,0,0,0,0,0,0,0,0,0,0,0,0,0,0,0,0,0,0,0,0,0,0,-3.3066,-3.3067,0,-3.312,-3.3121,-3.3121,-3.3112,-3.3112,-3.3111,-3.311,-3.3165,-3.3167,-3.317,0,0,0,0,0,0,0,0,0,0,0,0,0,-3.2956,-3.2958,-3.3066,-3.3067,-3.3067,-3.312,-3.3121,-3.3122,-3.3113,-3.3111,-3.311,-3.3109,-3.3164,-3.3167,-3.317,0,0,0,0,0,0,0,0,0,0,0,0,0,-3.3007,-3.2959,-3.3066,-3.3069,-3.307,-3.312,-3.3121,-3.3122,-3.3113,-3.3111,-3.311,-3.3109,-3.3163,-3.3167,-3.317,-3.322,0,0,-3.3181,-3.3183,0,0,0,0,0,0,0,0,-3.3004,-3.3011,-3.3068,-3.3069,-3.307,-3.3108,-3.3102,-3.3155,-3.3113,-3.3097,-3.311,-3.3108,-3.3147,-3.3152,-3.3165,-3.3223,-3.3225,-3.3181,-3.3184,-3.3185,-3.3186,0,0,0,0,0,0,0,-3.3,-3.3008,-3.3087,-3.3069,-3.307,-3.3069,-3.3074,-3.3112,-3.3129,-3.3098,-3.3097,-3.3104,-3.3148,-3.3162,-3.3167,-3.3226,-3.3181,-3.3185,-3.3187,-3.3188,-3.3329,-3.333,0,0,0,0,0,0,-3.2996,-3.3005,-3.3086,-3.3089,-3.3033,-3.3072,-3.3078,-3.3097,-3.3129,-3.3132,-3.3105,-3.3103,-3.3157,-3.3162,-3.3168,-3.3229,-3.3185,-3.3188,-3.319,-3.3327,-3.3329,-3.3331,0,0,0,0,0,0,-3.2993,-3.3003,-3.3083,-3.3047,-3.3057,-3.3075,-3.3097,-3.3099,-3.3113,-3.3134,-3.3137,-3.3117,-3.3156,-3.3164,-3.3208,-3.3231,-3.319,-3.3193,-3.3325,-3.3328,-3.333,-3.335,0,0,0,0,0,0,-3.299,-3.3002,-3.3021,-3.3048,-3.3059,-3.3121,-3.3098,-3.3101,-3.312,-3.3118,-3.3146,-3.3149,-3.3155,-3.3203,-3.3211,-3.3235,-3.3196,-3.3323,-3.3326,-3.3329,-3.3348,-3.3353,-3.3358,0,0,0,0,0,-3.2986,-3.3024,-3.3022,-3.3031,-3.3083,-3.3123,-3.3129,-3.3136,-3.3121,-3.314,-3.3154,-3.3148,-3.3228,-3.3207,-3.3217,-3.3242,-3.3322,-3.3325,-3.3329,-3.3345,-3.3352,-3.3358,0,0,0,0,0,0,-3.2999,-3.3028,-3.3025,-3.3073,-3.3095,-3.3121,-3.3145,-3.3143,-3.317,-3.3167,-3.3174,-3.318,-3.3225,-3.3238,-3.3215,-3.3293,-3.3273,-3.3278,-3.3282,-3.3288,-3.3293,-3.3289,-3.3199,0,0,0,0,0,-3.3007,-3.3037,-3.3061,-3.3101,-3.3112,-3.3127,-3.3144,-3.3148,-3.3171,-3.3181,-3.3198,-3.3221,-3.3251,-3.3271,-3.33,-3.3351,-3.3357,-3.3373,-3.3378,-3.3382,-3.3386,-3.3415,-3.3422,-3.3343,-3.3343,-3.3343,0,0,-3.3025,-3.3044,-3.3062,-3.3104,-3.3121,-3.3152,-3.3135,-3.3168,-3.3191,-3.3186,-3.3228,-3.3242,-3.3269,-3.3316,-3.3338,-3.3329,-3.341,-3.3387,-3.339,-3.3392,-3.3419,-3.3427,-3.3433,-3.3345,-3.3345,-3.3344,0,0,-3.3072,-3.309,-3.3125,-3.3144,-3.3171,-3.3181,-3.319,-3.3217,-3.3225,-3.3268,-3.3265,-3.3294,-3.3346,-3.3365,-3.3381,-3.3439,-3.3434,-3.3448,-3.3474,-3.3502,-3.3508,-3.3514,-3.3534,-3.3541,-3.3453,-3.3453,-3.3453,0,-3.309,-3.3136,-3.3143,-3.3177,-3.3196,-3.3194,-3.3229,-3.3247,-3.3283,-3.3296,-3.3285,-3.3351,-3.3369,-3.3422,-3.3436,-3.345,-3.346,-3.3444,-3.3507,-3.3512,-3.3518,-3.3537,-3.3544,-3.3455,-3.3454,-3.3454,-3.3454,0,-3.3157,-3.3189,-3.3214,-3.3249,-3.3271,-3.3305,-3.3319,-3.334,-3.3342,-3.3354,-3.3398,-3.342,-3.3454,-3.3467,-3.3469,-3.352,-3.3514,-3.3505,-3.3484,-3.3526,-3.3545,-3.3552,-3.3457,-3.3456,-3.3456,-3.3455,0,0,-3.3211,-3.3251,-3.326,-3.3276,-3.3307,-3.3333,-3.3368,-3.3401,-3.3419,-3.3445,-3.3475,-3.352,-3.3513,-3.3532,-3.3537,-3.3561,-3.3605,-3.355,-3.355,-3.3558,-3.3663,-3.3668,-3.3676,-3.3603,-3.3605,-3.3606,-3.366,0,-3.326,-3.3322,-3.3331,-3.3386,-3.3416,-3.3415,-3.3447,-3.347,-3.3482,-3.351,-3.3524,-3.3555,-3.3543,-3.3555,-3.3579,-3.3594,-3.3626,-3.3591,-3.3631,-3.3632,-3.3622,-3.3686,-3.3691,-3.3741,-3.3667,-3.3669,-3.367,0,-3.3326,-3.3353,-3.3411,-3.3439,-3.3452,-3.348,-3.3511,-3.3538,-3.3565,-3.3572,-3.3595,-3.3597,-3.3635,-3.3615,-3.3667,-3.3643,-3.3661,-3.3671,-3.3673,-3.3676,-3.3652,-3.3689,-3.3757,-3.3765,-3.3681,-3.368,-3.3679,0,-3.3359,-3.341,-3.3452,-3.3466,-3.35,-3.3519,-3.3534,-3.356,-3.358,-3.3608,-3.3621,-3.3654,-3.3671,-3.3697,-3.3708,-3.3693,-3.376,-3.3741,-3.3767,-3.3767,-3.378,-3.3778,-3.385,-3.3793,-3.3793,-3.3793,-3.3793,0,-3.3412,-3.3447,-3.3467,-3.3492,-3.3532,-3.3543,-3.3582,-3.3597,-3.362,-3.3649,-3.3651,-3.3678,-3.3693,-3.3722,-3.3732,-3.3774,-3.3782,-3.3789,-3.3791,-3.3788,-3.3787,-3.3798,-3.3794,-3.3795,-3.3795,-3.3794,-3.3794,0,-3.3454,-3.3469,-3.3514,-3.3543,-3.3552,-3.358,-3.3605,-3.363,-3.3643,-3.368,-3.3689,-3.3709,-3.3744,-3.3759,-3.3802,-3.3809,-3.3857,-3.3857,-3.3847,-3.3848,-3.3873,-3.387,-3.3954,-3.3965,-3.3901,-3.3902,-3.3902,0,-3.3487,-3.3514,-3.3546,-3.3566,-3.3581,-3.3613,-3.3633,-3.3646,-3.3667,-3.3701,-3.3722,-3.3757,-3.3785,-3.3842,-3.3861,-3.3894,-3.3894,-3.3922,-3.3899,-3.3896,-3.3894,-3.3892,-3.3894,-3.3925,-3.3925,-3.3926,-3.3926,0,-3.3543,-3.3549,-3.3578,-3.361,-3.3635,-3.3661,-3.3686,-3.3702,-3.3719,-3.3743,-3.3779,-3.3801,-3.3846,-3.3881,-3.3916,-3.3932,-3.3932,-3.3934,-3.3941,-3.3938,-3.3931,-3.3935,-3.3857,-3.3931,-3.3931,-3.393,-3.393,-3.393,-3.3581,-3.3605,-3.3632,-3.3664,-3.3685,-3.3709,-3.3734,-3.3751,-3.3781,-3.3818,-3.3824,-3.3862,-3.389,-3.3937,-3.3955,-3.3986,-3.3979,-3.399,-3.3993,-3.3995,-3.3997,-3.3928,-3.3993,-3.3992,-3.3992,-3.3992,-3.3992,0,-3.3636,-3.3654,-3.3684,-3.3719,-3.3745,-3.3744,-3.3773,-3.3795,-3.3828,-3.3854,-3.3883,-3.3924,-3.3959,-3.3982,-3.4017,-3.4037,-3.4038,-3.4046,-3.4044,-3.4048,-3.4001,-3.399,-3.4044,-3.4044,-3.4044,-3.4044,-3.4044,-3.4044,-3.3668,-3.3709,-3.3719,-3.377,-3.3788,-3.3825,-3.3842,-3.3864,-3.3885,-3.3932,-3.396,-3.3975,-3.4,-3.4037,-3.4069,-3.4075,-3.4088,-3.4096,-3.4101,-3.4056,-3.4051,-3.4046,-3.4036,-3.4098,-3.4099,-3.4145,-3.4146,-3.4146]},{"header":{"parameterUnit":"m.s-1","parameterCategory":1,"la1":30.2991,"la2":30.254,"lo1":-89.0895,"lo2":-89.0444,"dy":0.0017,"dx":0.0017,"nx":28,"ny":28,"refTime":"2023-10-04T03:00:00:Z","depth":0,"parameterNumber":3,"parameterNumberName":"V-component_of_WINDS"},"data":[0,0,0,0,0,0,0,0,0,0,0,0,0,0,0,0,0,0,0,0,0,0,0,0,0,0,0,0,0,0,0,0,0,0,0,0,0,0,0,0,0,0,0,0,0,0,0,0,0,0,0,0,0,0,0,0,0,0,4.2032,4.2032,0,4.2059,4.2059,4.2059,4.2022,4.202,4.2019,4.2018,4.2041,4.2043,4.2045,0,0,0,0,0,0,0,0,0,0,0,0,0,4.1947,4.1949,4.2032,4.2032,4.2033,4.2059,4.2059,4.2059,4.2022,4.202,4.2019,4.2017,4.204,4.2043,4.2045,0,0,0,0,0,0,0,0,0,0,0,0,0,4.198,4.195,4.2032,4.2017,4.2016,4.2058,4.2059,4.2059,4.2022,4.202,4.2018,4.2016,4.204,4.2042,4.2045,4.2102,0,0,4.2054,4.2055,0,0,0,0,0,0,0,0,4.1978,4.1983,4.2019,4.2018,4.2017,4.2035,4.2038,4.2073,4.2023,4.202,4.2018,4.2015,4.204,4.2043,4.2052,4.2103,4.2104,4.2054,4.2056,4.2057,4.2057,0,0,0,0,0,0,0,4.1976,4.1982,4.2042,4.202,4.2019,4.2009,4.2011,4.2044,4.2041,4.202,4.2017,4.2021,4.2039,4.205,4.2052,4.2104,4.2054,4.2056,4.2058,4.2059,4.2205,4.2207,0,0,0,0,0,0,4.1976,4.198,4.2042,4.2043,4.1993,4.2012,4.2015,4.2031,4.204,4.204,4.2023,4.2019,4.2046,4.2049,4.2053,4.2121,4.2057,4.2059,4.2061,4.2203,4.2206,4.2208,0,0,0,0,0,0,4.1974,4.1982,4.204,4.2011,4.2018,4.2016,4.2034,4.2033,4.2043,4.2043,4.2041,4.2034,4.2044,4.2049,4.2091,4.2121,4.2061,4.2063,4.22,4.2204,4.2207,4.2257,0,0,0,0,0,0,4.1972,4.1981,4.2003,4.2012,4.202,4.2078,4.2036,4.2035,4.2048,4.2044,4.2053,4.2052,4.2043,4.2087,4.2094,4.2124,4.2065,4.2198,4.2202,4.2206,4.2252,4.2261,4.2269,0,0,0,0,0,4.1969,4.2014,4.2004,4.2012,4.2047,4.208,4.2084,4.2074,4.2051,4.2072,4.2073,4.2052,4.2117,4.2091,4.2099,4.213,4.2196,4.2201,4.2205,4.2248,4.2259,4.2269,0,0,0,0,0,0,4.2006,4.2015,4.2004,4.2054,4.2067,4.2074,4.21,4.2086,4.2104,4.2099,4.2085,4.2087,4.2132,4.2136,4.2107,4.2187,4.2152,4.2159,4.2183,4.2193,4.2201,4.2199,4.2068,0,0,0,0,0,4.2021,4.2049,4.2054,4.2098,4.2105,4.2102,4.2116,4.2108,4.212,4.2125,4.2128,4.214,4.2163,4.2178,4.22,4.2253,4.2255,4.2279,4.2287,4.2294,4.2299,4.2329,4.234,4.2224,4.2224,4.2224,0,0,4.205,4.2059,4.2076,4.2106,4.2114,4.2143,4.2106,4.2137,4.2158,4.2129,4.2169,4.2172,4.2184,4.2233,4.2254,4.2237,4.2332,4.2301,4.2306,4.2307,4.2335,4.2346,4.2356,4.2228,4.2227,4.2227,0,0,4.2118,4.2127,4.2165,4.2176,4.2191,4.219,4.2199,4.2209,4.2211,4.2251,4.2231,4.2255,4.2295,4.2306,4.2316,4.2392,4.2374,4.24,4.2443,4.2472,4.2481,4.2489,4.2516,4.2526,4.2406,4.2406,4.2406,0,4.2151,4.2194,4.2186,4.2219,4.2233,4.2211,4.225,4.226,4.2281,4.2291,4.2272,4.2324,4.2331,4.2382,4.2401,4.241,4.242,4.2397,4.2481,4.2488,4.2496,4.2521,4.2532,4.2409,4.2408,4.2408,4.2408,0,4.2235,4.2266,4.2294,4.2318,4.2335,4.2371,4.2368,4.2386,4.2378,4.2378,4.2421,4.2429,4.2452,4.2464,4.2454,4.2514,4.2503,4.2483,4.2448,4.251,4.2534,4.2544,4.2413,4.2412,4.2411,4.241,0,0,4.2323,4.2345,4.2356,4.2367,4.2384,4.2407,4.2443,4.2468,4.2484,4.2501,4.253,4.2566,4.2549,4.2561,4.2553,4.2579,4.2639,4.2555,4.2555,4.257,4.2706,4.272,4.2732,4.2628,4.263,4.2632,4.2705,0,4.2391,4.2453,4.2449,4.2508,4.2536,4.2518,4.2549,4.2563,4.2565,4.2589,4.2591,4.2617,4.2592,4.2599,4.2624,4.2626,4.2666,4.2621,4.2654,4.2655,4.265,4.2744,4.2759,4.2828,4.2714,4.2716,4.2717,0,4.2477,4.2499,4.2562,4.2578,4.2589,4.2617,4.2641,4.2665,4.2681,4.2681,4.2696,4.2685,4.2721,4.2687,4.2736,4.2706,4.272,4.2723,4.2726,4.2727,4.2689,4.2747,4.2849,4.2859,4.2731,4.273,4.2729,0,4.2535,4.258,4.2624,4.2634,4.2654,4.2674,4.2683,4.2698,4.2714,4.2735,4.2745,4.2769,4.2782,4.2801,4.2797,4.2773,4.2848,4.2813,4.2848,4.2848,4.2862,4.2861,4.2967,4.2873,4.2873,4.2873,4.2873,0,4.261,4.2648,4.2651,4.2677,4.2721,4.2716,4.2759,4.2765,4.2779,4.2806,4.2792,4.2818,4.2811,4.2837,4.2834,4.2875,4.2881,4.2882,4.288,4.2882,4.2882,4.289,4.2884,4.2876,4.2875,4.2875,4.2874,0,4.268,4.2683,4.273,4.2746,4.2752,4.2783,4.2796,4.2821,4.2825,4.286,4.2867,4.2871,4.2901,4.29,4.2932,4.2931,4.2982,4.2975,4.2977,4.2975,4.301,4.3006,4.3123,4.3138,4.3035,4.3036,4.3037,0,4.2727,4.2757,4.2778,4.2796,4.2807,4.2837,4.2855,4.2852,4.2871,4.2894,4.2916,4.2945,4.2968,4.3017,4.3022,4.3047,4.304,4.308,4.3044,4.3046,4.304,4.3038,4.3041,4.3086,4.3087,4.3088,4.3089,0,4.2809,4.2811,4.2838,4.2866,4.2889,4.291,4.293,4.2946,4.2945,4.2967,4.2999,4.3017,4.3053,4.3082,4.3107,4.3115,4.3102,4.3101,4.311,4.3112,4.3111,4.3112,4.2995,4.3097,4.3096,4.3096,4.3095,4.3095,4.2869,4.2896,4.2916,4.2947,4.2963,4.2983,4.3008,4.3016,4.3043,4.3073,4.307,4.3105,4.3122,4.3156,4.3167,4.3194,4.318,4.3193,4.3196,4.3199,4.3203,4.3109,4.3198,4.3198,4.3198,4.3198,4.3198,0,4.2951,4.2964,4.2993,4.3023,4.3048,4.3037,4.3059,4.308,4.3112,4.3131,4.3155,4.3192,4.3221,4.323,4.3258,4.3279,4.3273,4.3286,4.3284,4.3286,4.3214,4.3203,4.329,4.329,4.329,4.329,4.329,4.329,4.2996,4.3041,4.3046,4.3099,4.3111,4.3148,4.3162,4.318,4.3195,4.3238,4.3263,4.327,4.3285,4.3314,4.3341,4.3343,4.3353,4.3368,4.3367,4.33,4.3291,4.3282,4.3271,4.3371,4.3371,4.3436,4.3437,4.3438]}]]